This is the latest recevied weather packets stored in our database for station/object N8TWM-13. If no packets are shown the sender has not sent any weather packets the latest 10 day(s).
| Time | Temp. | Humidity | Pressure | Rain* | Wind** | Luminosity | Snow |
|---|---|---|---|---|---|---|---|
| 1777991434 | 19.44° C | 68% | 1007 hPa | 0 mm | - | 599 W/m² | - |
| 1777991131 | 18.89° C | 69% | 1007.3 hPa | 0 mm | - | 571 W/m² | - |
| 1777990828 | 18.89° C | 70% | 1007.1 hPa | 0 mm | - | 546 W/m² | - |
| 1777990526 | 18.89° C | 71% | 1007.5 hPa | 0 mm | - | 542 W/m² | - |
| 1777989919 | 18.33° C | 72% | 1007.5 hPa | 0 mm | - | 507 W/m² | - |
| 1777989616 | 18.33° C | 72% | 1007.4 hPa | 0 mm | - | 507 W/m² | - |
| 1777989312 | 18.33° C | 74% | 1007.5 hPa | 0 mm | - | 534 W/m² | - |
| 1777989009 | 17.78° C | 74% | 1007.3 hPa | 0 mm | - | 528 W/m² | - |
| 1777988705 | 17.78° C | 74% | 1007.5 hPa | 0 mm | - | 286 W/m² | - |
| 1777988402 | 17.78° C | 75% | 1007.5 hPa | 0 mm | - | 491 W/m² | - |
| 1777988099 | 17.78° C | 75% | 1007.5 hPa | 0 mm | - | 508 W/m² | - |
| 1777987794 | 17.78° C | 75% | 1007.5 hPa | 0 mm | - | 459 W/m² | - |
| 1777987491 | 17.22° C | 76% | 1007.5 hPa | 0 mm | - | 447 W/m² | - |
| 1777987189 | 17.22° C | 77% | 1007.6 hPa | 0 mm | - | 480 W/m² | - |
| 1777986885 | 16.67° C | 77% | 1007.8 hPa | 0 mm | - | 174 W/m² | - |
| 1777986583 | 16.67° C | 79% | 1007.5 hPa | 0 mm | - | 404 W/m² | - |
| 1777986281 | 16.11° C | 79% | 1007.3 hPa | 0 mm | - | 378 W/m² | - |
| 1777985979 | 15.56° C | 80% | 1007.2 hPa | 0 mm | - | 165 W/m² | - |
| 1777985676 | 15.56° C | 81% | 1007.2 hPa | 0 mm | - | 151 W/m² | - |
| 1777985372 | 15.56° C | 81% | 1007.2 hPa | 0 mm | - | 295 W/m² | - |
| 1777985069 | 15.56° C | 82% | 1007.2 hPa | 0 mm | - | 292 W/m² | - |
| 1777984765 | 15° C | 82% | 1007 hPa | 0 mm | - | 223 W/m² | - |
| 1777984462 | 15° C | 83% | 1007.3 hPa | 0 mm | - | 111 W/m² | - |
| 1777984158 | 15° C | 83% | 1007.1 hPa | 0 mm | - | 94 W/m² | - |
| 1777983856 | 14.44° C | 83% | 1007.1 hPa | 0 mm | - | 91 W/m² | - |
* Rain latest hour (hover to see other rain measurements)
** Current wind speed in m/s (hover to see current wind gust speed)